TimeMDT,TemperatureF,Dew PointF,Humidity,Sea Level PressureIn,VisibilityMPH,Wind Direction,Wind SpeedMPH,Gust SpeedMPH,PrecipitationIn,Events,Conditions,WindDirDegrees,DateUTC
12:15 AM,51.8,35.6,54,29.91,10.0,South,4.6,-,N/A,,Clear,190,2013-09-21 06:15:00
12:35 AM,55.4,33.8,44,29.91,10.0,SW,8.1,-,N/A,,Clear,220,2013-09-21 06:35:00
12:55 AM,53.6,33.8,47,29.91,10.0,WSW,3.5,-,N/A,,Clear,240,2013-09-21 06:55:00
1:15 AM,55.4,33.8,44,29.90,10.0,SW,11.5,-,N/A,,Clear,230,2013-09-21 07:15:00
1:35 AM,53.6,33.8,47,29.90,10.0,SW,8.1,-,N/A,,Clear,230,2013-09-21 07:35:00
1:55 AM,53.6,33.8,47,29.89,10.0,SW,5.8,-,N/A,,Clear,220,2013-09-21 07:55:00
2:15 AM,53.6,33.8,47,29.89,10.0,SSE,8.1,-,N/A,,Clear,150,2013-09-21 08:15:00
2:35 AM,53.6,32.0,44,29.88,10.0,Calm,Calm,-,N/A,,Clear,0,2013-09-21 08:35:00
2:55 AM,53.6,32.0,44,29.88,10.0,NNW,4.6,-,N/A,,Clear,340,2013-09-21 08:55:00
3:15 AM,51.8,32.0,47,29.88,10.0,Calm,Calm,-,N/A,,Clear,0,2013-09-21 09:15:00
3:35 AM,46.4,33.8,62,29.88,10.0,East,3.5,-,N/A,,Clear,90,2013-09-21 09:35:00
4:15 AM,53.6,32.0,44,29.89,10.0,South,5.8,-,N/A,,Clear,180,2013-09-21 10:15:00
4:35 AM,46.4,32.0,57,29.88,10.0,Calm,Calm,-,N/A,,Clear,0,2013-09-21 10:35:00
4:55 AM,48.2,32.0,54,29.89,10.0,South,3.5,-,N/A,,Clear,180,2013-09-21 10:55:00
5:15 AM,48.2,32.0,54,29.88,10.0,South,4.6,-,N/A,,Clear,170,2013-09-21 11:15:00
5:35 AM,46.4,33.8,62,29.88,10.0,Calm,Calm,-,N/A,,Clear,0,2013-09-21 11:35:00
5:55 AM,51.8,32.0,47,29.89,10.0,Calm,Calm,-,N/A,,Clear,0,2013-09-21 11:55:00
6:15 AM,50.0,30.2,47,29.89,10.0,SSW,4.6,-,N/A,,Clear,200,2013-09-21 12:15:00
6:35 AM,53.6,30.2,41,29.89,10.0,SSW,6.9,-,N/A,,Clear,210,2013-09-21 12:35:00
6:55 AM,55.4,30.2,38,29.89,10.0,ESE,3.5,-,N/A,,Clear,120,2013-09-21 12:55:00
7:15 AM,53.6,30.2,41,29.89,10.0,Calm,Calm,-,N/A,,Clear,0,2013-09-21 13:15:00
7:35 AM,53.6,32.0,44,29.89,10.0,SSW,9.2,-,N/A,,Clear,210,2013-09-21 13:35:00
7:55 AM,55.4,33.8,44,29.89,10.0,SSW,8.1,-,N/A,,Clear,200,2013-09-21 13:55:00
8:15 AM,55.4,35.6,47,29.88,10.0,WSW,4.6,-,N/A,,Clear,250,2013-09-21 14:15:00
8:35 AM,53.6,37.4,54,29.88,10.0,Calm,Calm,-,N/A,,Clear,0,2013-09-21 14:35:00
8:55 AM,57.2,41.0,55,29.88,10.0,Calm,Calm,-,N/A,,Clear,0,2013-09-21 14:55:00
9:15 AM,62.6,35.6,37,29.88,10.0,Calm,Calm,-,N/A,,Clear,0,2013-09-21 15:15:00
9:35 AM,64.4,35.6,34,29.87,10.0,Calm,Calm,-,N/A,,Clear,0,2013-09-21 15:35:00
9:55 AM,66.2,35.6,32,29.87,10.0,Calm,Calm,-,N/A,,Clear,0,2013-09-21 15:55:00
10:15 AM,69.8,37.4,31,29.87,10.0,SSW,8.1,-,N/A,,Clear,200,2013-09-21 16:15:00
10:35 AM,71.6,33.8,25,29.86,10.0,SSW,6.9,-,N/A,,Clear,200,2013-09-21 16:35:00
10:55 AM,71.6,33.8,25,29.86,10.0,SSW,6.9,-,N/A,,Clear,210,2013-09-21 16:55:00
11:15 AM,73.4,33.8,23,29.85,10.0,WSW,3.5,-,N/A,,Clear,240,2013-09-21 17:15:00
11:35 AM,73.4,37.4,27,29.84,10.0,West,3.5,-,N/A,,Clear,260,2013-09-21 17:35:00
11:55 AM,73.4,39.2,29,29.83,10.0,Calm,Calm,-,N/A,,Clear,0,2013-09-21 17:55:00
12:15 PM,75.2,35.6,24,29.82,5.0,Calm,Calm,-,N/A,,Clear,0,2013-09-21 18:15:00
12:35 PM,77.0,32.0,19,29.81,7.0,SW,9.2,-,N/A,,Clear,220,2013-09-21 18:35:00
12:55 PM,78.8,30.2,17,29.80,8.0,South,10.4,-,N/A,,Clear,190,2013-09-21 18:55:00
1:15 PM,77.0,28.4,17,29.79,5.0,Calm,Calm,-,N/A,,Clear,0,2013-09-21 19:15:00
1:35 PM,78.8,33.8,20,29.78,10.0,West,4.6,-,N/A,,Clear,270,2013-09-21 19:35:00
1:55 PM,78.8,37.4,23,29.77,10.0,West,5.8,-,N/A,,Clear,270,2013-09-21 19:55:00
2:35 PM,80.6,32.0,17,29.75,10.0,WSW,9.2,-,N/A,,Clear,250,2013-09-21 20:35:00
2:55 PM,78.8,32.0,18,29.75,10.0,West,6.9,-,N/A,,Clear,260,2013-09-21 20:55:00
3:15 PM,80.6,32.0,17,29.74,10.0,West,5.8,-,N/A,,Clear,280,2013-09-21 21:15:00
3:55 PM,78.8,33.8,20,29.72,10.0,West,9.2,-,N/A,,Clear,280,2013-09-21 21:55:00
4:15 PM,78.8,35.6,21,29.72,10.0,NW,9.2,-,N/A,,Clear,320,2013-09-21 22:15:00
4:35 PM,78.8,33.8,20,29.71,10.0,West,6.9,-,N/A,,Clear,280,2013-09-21 22:35:00
4:55 PM,78.8,33.8,20,29.71,10.0,West,5.8,-,N/A,,Clear,260,2013-09-21 22:55:00
5:15 PM,78.8,30.2,17,29.71,10.0,SW,4.6,-,N/A,,Clear,230,2013-09-21 23:15:00
5:35 PM,78.8,30.2,17,29.70,10.0,Calm,Calm,-,N/A,,Clear,0,2013-09-21 23:35:00
5:55 PM,78.8,30.2,17,29.70,10.0,Calm,Calm,-,N/A,,Clear,0,2013-09-21 23:55:00
6:15 PM,78.8,30.2,17,29.69,10.0,Calm,Calm,-,N/A,,Clear,0,2013-09-22 00:15:00
6:35 PM,75.2,32.0,21,29.69,10.0,Calm,Calm,-,N/A,,Clear,0,2013-09-22 00:35:00
6:55 PM,75.2,32.0,21,29.68,10.0,Calm,Calm,-,N/A,,Clear,0,2013-09-22 00:55:00
7:15 PM,71.6,33.8,25,29.68,10.0,West,3.5,-,N/A,,Clear,260,2013-09-22 01:15:00
7:35 PM,69.8,37.4,31,29.68,10.0,SSW,3.5,-,N/A,,Clear,200,2013-09-22 01:35:00
7:55 PM,66.2,37.4,35,29.69,10.0,West,4.6,-,N/A,,Clear,260,2013-09-22 01:55:00
8:15 PM,66.2,35.6,32,29.69,10.0,Calm,Calm,-,N/A,,Clear,0,2013-09-22 02:15:00
8:35 PM,64.4,37.4,37,29.70,10.0,SSW,4.6,-,N/A,,Clear,200,2013-09-22 02:35:00
8:55 PM,62.6,37.4,39,29.70,10.0,SSW,3.5,-,N/A,,Clear,200,2013-09-22 02:55:00
9:15 PM,60.8,35.6,39,29.69,10.0,SSW,4.6,-,N/A,,Partly Cloudy,210,2013-09-22 03:15:00
9:35 PM,60.8,35.6,39,29.70,10.0,SSE,8.1,-,N/A,,Partly Cloudy,160,2013-09-22 03:35:00
9:55 PM,62.6,35.6,37,29.70,10.0,SW,6.9,-,N/A,,Clear,230,2013-09-22 03:55:00
10:15 PM,60.8,35.6,39,29.69,10.0,SSE,4.6,-,N/A,,Clear,160,2013-09-22 04:15:00
10:35 PM,62.6,35.6,37,29.69,10.0,South,4.6,-,N/A,,Clear,190,2013-09-22 04:35:00
11:15 PM,60.8,35.6,39,29.68,10.0,SW,3.5,-,N/A,,Clear,220,2013-09-22 05:15:00
11:35 PM,59.0,35.6,42,29.69,10.0,South,8.1,-,N/A,,Clear,190,2013-09-22 05:35:00
11:55 PM,59.0,35.6,42,29.68,10.0,South,3.5,-,N/A,,Clear,170,2013-09-22 05:55:00